This demonstration page uses our WeatherBlox Daily Observations layout. Learn more.

Left ArrowRight Arrow

39.01783, -85.05884

Hourly Observations for June 23, 2018

Temp ( °F °C ) Dew Point ( °F °C ) Humidity (%) Winds ( mph kmh ) Pressure ( in mb ) Visibility ( mi km ) Precip ( " mm )
12:43 am 00:43 Mostly Cloudy 67 19.4 65 18.3 93 93 SSW 6 9 29.68 1005 10 16 N/A
12:52 am 00:52 Mostly Cloudy 67 19.4 65 18.3 93 93 SSW 6 9 29.68 1005 10 16 N/A
1:52 am 01:52 Mostly Cloudy 67 19.4 65 18.3 93 93 SW 9 15 29.68 1005 9 14 N/A
2:17 am 02:17 Cloudy 68 20 65 18.3 90 90 SW 9 15 29.68 1005 8 13 N/A
2:50 am 02:50 Cloudy 66 19 64 18 94 94 SW 10 17 29.68 1005 8 13 N/A
2:52 am 02:52 Cloudy 67 19.4 65 18.3 93 93 SW 9 15 29.68 1005 8 13 N/A
3:10 am 03:10 Cloudy 68 20 65 18.3 90 90 SW 8 13 29.68 1005 9 14 N/A
3:52 am 03:52 Cloudy 68 20 64 17.8 87 87 SSW 7 11 29.69 1005 9 14 N/A
4:43 am 04:43 Cloudy 67 19.4 64 17.8 91 91 SW 6 9 29.71 1006 8 13 N/A
4:52 am 04:52 Cloudy 67 19.4 64 17.8 91 91 WSW 7 11 29.71 1006 8 13 N/A
5:41 am 05:41 Cloudy 67 19.4 64 17.8 91 91 SW 6 9 29.71 1006 9 14 N/A
5:52 am 05:52 Partly Cloudy 66 18.9 64 17.8 93 93 SW 5 7 29.72 1007 10 16 N/A
6:30 am 06:30 Cloudy 66 18.9 64 17.8 93 93 SSW 6 9 29.74 1007 10 16 N/A
6:52 am 06:52 Cloudy 67 19.4 64 17.8 91 91 SW 6 9 29.74 1007 10 16 N/A
7:03 am 07:03 Cloudy with Mist and Fog 67 19.4 64 17.8 91 91 SW 6 9 29.74 1007 6 10 N/A
7:52 am 07:52 Cloudy with Mist and Fog 67 19.4 64 17.8 91 91 W 7 11 29.76 1008 2 3 N/A
8:39 am 08:39 Cloudy 68 20 65 18.3 90 90 WSW 7 11 29.77 1008 7 11 N/A
8:52 am 08:52 Cloudy 68 20 65 18.3 90 90 SW 8 13 29.77 1008 7 11 N/A
9:52 am 09:52 Cloudy 70 21.1 65 18.3 84 84 SW 9 15 29.78 1008 10 16 N/A
10:52 am 10:52 Cloudy 70 21.1 65 18.3 84 84 SW 12 19 29.78 1008 9 14 N/A
10:59 am 10:59 Cloudy with Light Rain 69 20.6 65 18.3 87 87 SW 10 17 29.77 1008 2 3 0.01 0.25
11:11 am 11:11 Cloudy with Light Rain 69 20.6 66 18.9 90 90 W 8 13 29.77 1008 3 5 0.06 1.52
11:52 am 11:52 Cloudy with Mist and Fog 70 21.1 66 18.9 87 87 W 12 19 29.79 1009 6 10 0.06 1.52
12:52 pm 12:52 Cloudy 72 22.2 65 18.3 79 79 SW 6 9 29.80 1009 10 16 N/A
1:52 pm 13:52 Mostly Cloudy 74 23.3 65 18.3 74 74 WSW 9 15 29.79 1009 10 16 N/A
2:52 pm 14:52 Cloudy 77 25 65 18.3 66 66 SW 13 20 29.78 1008 10 16 N/A
3:09 pm 15:09 Mostly Cloudy 76 24.4 64 17.8 67 67 WSW 9 15 29.77 1008 10 16 N/A
3:52 pm 15:52 Cloudy 77 25 64 17.8 64 64 WSW 7 11 29.77 1008 10 16 N/A
4:52 pm 16:52 Mostly Cloudy 78 25.6 64 17.8 62 62 W 8 13 29.77 1008 10 16 N/A
5:52 pm 17:52 Cloudy 78 25.6 64 17.8 62 62 WSW 8 13 29.78 1009 10 16 N/A
6:52 pm 18:52 Mostly Cloudy 77 25 64 17.8 64 64 W 12 19 29.78 1009 10 16 N/A
7:52 pm 19:52 Cloudy 76 24.4 65 18.3 69 69 W 8 13 29.79 1009 10 16 N/A
8:52 pm 20:52 Mostly Cloudy 74 23.3 64 17.8 71 71 W 6 9 29.79 1009 10 16 N/A
9:52 pm 21:52 Mostly Cloudy 73 22.8 64 17.8 74 74 WSW 5 7 29.80 1009 10 16 N/A
10:52 pm 22:52 Partly Cloudy 72 22.2 64 17.8 76 76 SW 3 6 29.81 1010 10 16 N/A
11:52 pm 23:52 Clear 70 21.1 64 17.8 82 82 SW 5 7 29.83 1010 10 16 N/A

Powered by AerisWeather